| time (UTC) | temp C | wind direction | speed KPH | gust KPH | rain 1hr cm | rain 24hr cm | rain mn cm | humidity % | barometer mb |
| 20260507085611 | 14 | 315 | 3.2 | 0.0 | 0.00 | 0.00 | 0.00 | 49 | 982.2 |
| 20260507084610 | 13 | 22 | 3.2 | 0.0 | 0.00 | 0.00 | 0.00 | 52 | 982.2 |
| 20260507083610 | 13 | 337 | 1.6 | 4.8 | 0.00 | 0.00 | 0.00 | 54 | 982.1 |
| 20260507082611 | 12 | 157 | 1.6 | 0.0 | 0.00 | 0.00 | 0.00 | 52 | 982.1 |
| 20260507081610 | 12 | 270 | 0.0 | 0.0 | 0.00 | 0.00 | 0.00 | 52 | 982.1 |
| 20260507080610 | 12 | 315 | 0.0 | 0.0 | 0.00 | 0.00 | 0.00 | 52 | 982.1 |
| 20260507075610 | 11 | 315 | 0.0 | 3.2 | 0.00 | 0.00 | 0.00 | 52 | 981.8 |
| 20260507074610 | 12 | 135 | 0.0 | 0.0 | 0.00 | 0.00 | 0.00 | 52 | 981.8 |
| 20260507073610 | 11 | 315 | 0.0 | 0.0 | 0.00 | 0.00 | 0.00 | 52 | 981.4 |
| 20260507072610 | 11 | 247 | 0.0 | 0.0 | 0.00 | 0.00 | 0.00 | 52 | 981.4 |
| 20260507071609 | 11 | 315 | 0.0 | 3.2 | 0.00 | 0.00 | 0.00 | 51 | 981.1 |
| 20260507070609 | 11 | 270 | 0.0 | 1.6 | 0.00 | 0.00 | 0.00 | 51 | 981.1 |
| 20260507065609 | 10 | 270 | 0.0 | 0.0 | 0.00 | 0.00 | 0.00 | 51 | 981.0 |
| 20260507064609 | 10 | 270 | 0.0 | 0.0 | 0.00 | 0.00 | 0.00 | 51 | 981.0 |
| 20260507063610 | 10 | 270 | 0.0 | 0.0 | 0.00 | 0.00 | 0.00 | 51 | 980.8 |
| 20260507062609 | 10 | 315 | 0.0 | 3.2 | 0.00 | 0.00 | 0.00 | 51 | 980.8 |
| 20260507061609 | 10 | 315 | 1.6 | 0.0 | 0.00 | 0.00 | 0.00 | 51 | 980.4 |
| 20260507060609 | 10 | 315 | 1.6 | 0.0 | 0.00 | 0.00 | 0.00 | 51 | 980.4 |
| 20260507055609 | 10 | 270 | 1.6 | 3.2 | 0.00 | 0.00 | 0.00 | 50 | 980.2 |
| 20260507054614 | 10 | 292 | 1.6 | 0.0 | 0.00 | 0.00 | 0.00 | 50 | 980.2 |
| 20260507053614 | 10 | 270 | 0.0 | 0.0 | 0.00 | 0.00 | 0.00 | 50 | 979.9 |
| 20260507052614 | 10 | 225 | 0.0 | 0.0 | 0.00 | 0.00 | 0.00 | 50 | 979.9 |
| 20260507051614 | 10 | 247 | 0.0 | 0.0 | 0.00 | 0.00 | 0.00 | 50 | 979.8 |
| 20260507050614 | 10 | 270 | 0.0 | 0.0 | 0.00 | 0.00 | 0.00 | 50 | 979.8 |
| 20260507045614 | 9 | 270 | 0.0 | 0.0 | 0.00 | 0.00 | 0.00 | 50 | 979.6 |
| 20260507044614 | 9 | 270 | 0.0 | 3.2 | 0.00 | 0.00 | 0.00 | 50 | 979.6 |
| 20260507043613 | 9 | 180 | 0.0 | 0.0 | 0.00 | 0.00 | 0.00 | 50 | 979.3 |
| 20260507042613 | 9 | 270 | 0.0 | 0.0 | 0.00 | 0.00 | 0.00 | 49 | 979.3 |
| 20260507041613 | 9 | 270 | 0.0 | 0.0 | 0.00 | 0.00 | 0.00 | 49 | 979.1 |
| 20260507040613 | 9 | 315 | 0.0 | 0.0 | 0.00 | 0.00 | 0.00 | 49 | 979.1 |
| 20260507035613 | 9 | 270 | 0.0 | 0.0 | 0.00 | 0.00 | 0.00 | 49 | 979.1 |
| 20260507034613 | 9 | 292 | 0.0 | 1.6 | 0.00 | 0.00 | 0.00 | 49 | 979.1 |
| 20260507033613 | 9 | 225 | 0.0 | 0.0 | 0.00 | 0.00 | 0.00 | 49 | 979.0 |
| 20260507032613 | 9 | 247 | 0.0 | 1.6 | 0.00 | 0.00 | 0.00 | 49 | 979.0 |
| 20260507031613 | 9 | 270 | 0.0 | 0.0 | 0.00 | 0.00 | 0.00 | 49 | 979.1 |
| 20260507030612 | 10 | 292 | 0.0 | 0.0 | 0.00 | 0.00 | 0.00 | 49 | 979.1 |
| 20260507025613 | 10 | 315 | 0.0 | 0.0 | 0.00 | 0.00 | 0.00 | 49 | 979.1 |
| 20260507024612 | 10 | 247 | 0.0 | 3.2 | 0.00 | 0.00 | 0.00 | 49 | 979.1 |
| 20260507023612 | 10 | 337 | 1.6 | 0.0 | 0.00 | 0.00 | 0.00 | 48 | 978.9 |
| 20260507022612 | 10 | 157 | 1.6 | 1.6 | 0.00 | 0.00 | 0.00 | 48 | 978.9 |
| 20260507021612 | 10 | 315 | 0.0 | 0.0 | 0.00 | 0.00 | 0.00 | 48 | 978.6 |
| 20260507020612 | 10 | 315 | 1.6 | 0.0 | 0.00 | 0.00 | 0.00 | 48 | 978.6 |
| 20260507015612 | 10 | 315 | 3.2 | 3.2 | 0.00 | 0.00 | 0.00 | 48 | 978.4 |
| 20260507014612 | 10 | 292 | 1.6 | 3.2 | 0.00 | 0.00 | 0.00 | 48 | 978.4 |
| 20260507013612 | 10 | 22 | 1.6 | 4.8 | 0.00 | 0.00 | 0.00 | 48 | 978.4 |
| 20260507012612 | 10 | 360 | 3.2 | 4.8 | 0.00 | 0.00 | 0.00 | 48 | 978.4 |
| 20260507011612 | 10 | 315 | 1.6 | 1.6 | 0.00 | 0.00 | 0.00 | 48 | 978.2 |
| 20260507010611 | 10 | 22 | 3.2 | 3.2 | 0.00 | 0.00 | 0.00 | 48 | 978.2 |
| 20260507005611 | 10 | 90 | 3.2 | 3.2 | 0.00 | 0.00 | 0.00 | 48 | 978.2 |
| 20260507004611 | 10 | 337 | 1.6 | 4.8 | 0.00 | 0.00 | 0.00 | 48 | 978.2 |
| 20260507003611 | 10 | 315 | 0.0 | 0.0 | 0.00 | 0.00 | 0.00 | 48 | 978.2 |
| 20260507002611 | 10 | 292 | 3.2 | 1.6 | 0.00 | 0.00 | 0.00 | 48 | 978.2 |
| 20260507001611 | 10 | 360 | 1.6 | 11.3 | 0.00 | 0.00 | 0.00 | 47 | 978.1 |
| 20260507000611 | 10 | 315 | 1.6 | 1.6 | 0.00 | 0.00 | 0.00 | 47 | 978.1 |
| 20260506235611 | 10 | 337 | 0.0 | 3.2 | 0.00 | 0.00 | 0.00 | 47 | 978.1 |
| 20260506234611 | 10 | 337 | 1.6 | 0.0 | 0.00 | 0.00 | 0.00 | 47 | 978.1 |
| 20260506233611 | 10 | 337 | 0.0 | 0.0 | 0.00 | 0.00 | 0.00 | 47 | 978.1 |
| 20260506232611 | 10 | 337 | 1.6 | 0.0 | 0.00 | 0.00 | 0.00 | 47 | 978.1 |
| 20260506231611 | 11 | 315 | 1.6 | 1.6 | 0.00 | 0.00 | 0.00 | 47 | 978.3 |
| 20260506230610 | 11 | 22 | 1.6 | 0.0 | 0.00 | 0.00 | 0.00 | 47 | 978.3 |
| 20260506225610 | 11 | 315 | 1.6 | 0.0 | 0.00 | 0.00 | 0.00 | 47 | 978.1 |
| 20260506224610 | 11 | 315 | 1.6 | 0.0 | 0.00 | 0.00 | 0.00 | 47 | 978.1 |
| 20260506223610 | 11 | 315 | 0.0 | 0.0 | 0.00 | 0.00 | 0.00 | 47 | 978.0 |
| 20260506222610 | 11 | 315 | 1.6 | 1.6 | 0.00 | 0.00 | 0.00 | 46 | 978.0 |
| 20260506221610 | 11 | 315 | 1.6 | 6.4 | 0.00 | 0.00 | 0.00 | 46 | 978.1 |
| 20260506220610 | 11 | 337 | 1.6 | 0.0 | 0.00 | 0.00 | 0.00 | 46 | 978.1 |
| 20260506215610 | 11 | 337 | 1.6 | 0.0 | 0.00 | 0.00 | 0.00 | 46 | 978.0 |
| 20260506214610 | 11 | 292 | 1.6 | 3.2 | 0.00 | 0.00 | 0.00 | 46 | 978.0 |
| 20260506213610 | 11 | 292 | 0.0 | 3.2 | 0.00 | 0.00 | 0.00 | 46 | 977.8 |
| 20260506212610 | 11 | 315 | 0.0 | 0.0 | 0.00 | 0.00 | 0.00 | 46 | 977.8 |
| 20260506211610 | 11 | 292 | 0.0 | 0.0 | 0.00 | 0.00 | 0.00 | 46 | 977.4 |
| 20260506210609 | 11 | 315 | 0.0 | 0.0 | 0.00 | 0.00 | 0.00 | 46 | 977.4 |
| 20260506205609 | 11 | 315 | 0.0 | 0.0 | 0.00 | 0.00 | 0.00 | 46 | 977.4 |
| 20260506204609 | 11 | 292 | 1.6 | 3.2 | 0.00 | 0.00 | 0.00 | 46 | 977.4 |
| 20260506203609 | 11 | 315 | 1.6 | 4.8 | 0.00 | 0.00 | 0.00 | 46 | 977.2 |
| 20260506202609 | 11 | 315 | 1.6 | 0.0 | 0.00 | 0.00 | 0.00 | 46 | 977.2 |
| 20260506201614 | 11 | 270 | 0.0 | 3.2 | 0.00 | 0.00 | 0.00 | 46 | 977.0 |
| 20260506200614 | 11 | 270 | 0.0 | 0.0 | 0.00 | 0.00 | 0.00 | 46 | 977.0 |
| 20260506195614 | 11 | 292 | 0.0 | 0.0 | 0.00 | 0.00 | 0.00 | 46 | 976.8 |
| 20260506194614 | 12 | 337 | 0.0 | 0.0 | 0.00 | 0.00 | 0.00 | 45 | 976.8 |
| 20260506193614 | 12 | 292 | 1.6 | 0.0 | 0.00 | 0.00 | 0.00 | 45 | 976.6 |
| 20260506192614 | 12 | 315 | 0.0 | 3.2 | 0.00 | 0.00 | 0.00 | 45 | 976.6 |
| 20260506191614 | 12 | 292 | 0.0 | 0.0 | 0.00 | 0.00 | 0.00 | 45 | 976.4 |
| 20260506190614 | 12 | 315 | 1.6 | 0.0 | 0.00 | 0.00 | 0.00 | 45 | 976.4 |
| 20260506185614 | 12 | 270 | 3.2 | 6.4 | 0.00 | 0.00 | 0.00 | 45 | 975.9 |
| 20260506184613 | 12 | 292 | 3.2 | 3.2 | 0.00 | 0.00 | 0.00 | 45 | 975.9 |
| 20260506183613 | 12 | 315 | 4.8 | 6.4 | 0.00 | 0.00 | 0.00 | 45 | 975.8 |
| 20260506182613 | 12 | 315 | 1.6 | 8.0 | 0.00 | 0.00 | 0.00 | 45 | 975.8 |
| 20260506181613 | 13 | 337 | 1.6 | 0.0 | 0.00 | 0.00 | 0.00 | 45 | 975.6 |
| 20260506180613 | 13 | 292 | 1.6 | 3.2 | 0.00 | 0.00 | 0.00 | 45 | 975.6 |
| 20260506175613 | 13 | 360 | 1.6 | 3.2 | 0.00 | 0.00 | 0.00 | 45 | 975.4 |
| 20260506174613 | 13 | 360 | 0.0 | 0.0 | 0.00 | 0.00 | 0.00 | 45 | 975.4 |
| 20260506173613 | 13 | 337 | 0.0 | 0.0 | 0.00 | 0.00 | 0.00 | 45 | 975.4 |
| 20260506172613 | 13 | 22 | 1.6 | 0.0 | 0.00 | 0.00 | 0.00 | 45 | 975.4 |
| 20260506171613 | 13 | 337 | 1.6 | 3.2 | 0.00 | 0.00 | 0.00 | 45 | 975.1 |
| 20260506170612 | 13 | 247 | 0.0 | 0.0 | 0.00 | 0.00 | 0.00 | 45 | 975.1 |
| 20260506165612 | 13 | 315 | 1.6 | 3.2 | 0.00 | 0.00 | 0.00 | 45 | 975.2 |
| 20260506164612 | 14 | 270 | 3.2 | 1.6 | 0.00 | 0.00 | 0.00 | 45 | 975.2 |
| 20260506163612 | 14 | 270 | 3.2 | 1.6 | 0.00 | 0.00 | 0.00 | 45 | 975.4 |
| 20260506162612 | 15 | 360 | 4.8 | 6.4 | 0.00 | 0.00 | 0.00 | 46 | 975.4 |
| 20260506161612 | 15 | 337 | 3.2 | 8.0 | 0.00 | 0.00 | 0.00 | 46 | 975.4 |
| 20260506160612 | 15 | 360 | 4.8 | 11.3 | 0.00 | 0.00 | 0.00 | 46 | 975.4 |
| 20260506155612 | 16 | 337 | 4.8 | 8.0 | 0.00 | 0.00 | 0.00 | 46 | 975.1 |
| 20260506154612 | 16 | 22 | 4.8 | 6.4 | 0.00 | 0.00 | 0.00 | 46 | 975.1 |
| 20260506153612 | 16 | 315 | 3.2 | 3.2 | 0.00 | 0.00 | 0.00 | 46 | 975.2 |
| 20260506152612 | 16 | 315 | 3.2 | 4.8 | 0.00 | 0.00 | 0.00 | 47 | 975.2 |
| 20260506151612 | 16 | 202 | 3.2 | 3.2 | 0.00 | 0.00 | 0.00 | 47 | 975.1 |
| 20260506150611 | 16 | 22 | 1.6 | 0.0 | 0.00 | 0.00 | 0.00 | 47 | 975.1 |
| 20260506145611 | 16 | 315 | 1.6 | 6.4 | 0.00 | 0.00 | 0.00 | 47 | 974.8 |
| 20260506144611 | 16 | 315 | 1.6 | 0.0 | 0.00 | 0.00 | 0.00 | 47 | 974.8 |
| 20260506143611 | 15 | 270 | 3.2 | 9.7 | 0.00 | 0.00 | 0.00 | 48 | 974.9 |
| 20260506142611 | 15 | 315 | 3.2 | 3.2 | 0.00 | 0.00 | 0.00 | 48 | 974.9 |
| 20260506141611 | 16 | 360 | 3.2 | 0.0 | 0.00 | 0.00 | 0.00 | 48 | 974.8 |
| 20260506140612 | 16 | 157 | 3.2 | 3.2 | 0.00 | 0.00 | 0.00 | 48 | 974.8 |
| 20260506135611 | 16 | 247 | 3.2 | 4.8 | 0.00 | 0.00 | 0.00 | 49 | 974.8 |
| 20260506134611 | 16 | 247 | 3.2 | 4.8 | 0.00 | 0.00 | 0.00 | 48 | 974.8 |
| 20260506133611 | 16 | 225 | 3.2 | 8.0 | 0.00 | 0.00 | 0.00 | 49 | 975.1 |
| 20260506132611 | 16 | 270 | 4.8 | 6.4 | 0.00 | 0.00 | 0.00 | 49 | 975.1 |
| 20260506131611 | 16 | 247 | 4.8 | 4.8 | 0.00 | 0.00 | 0.00 | 49 | 974.8 |
| 20260506130611 | 17 | 292 | 4.8 | 9.7 | 0.00 | 0.00 | 0.00 | 49 | 974.8 |
| 20260506125610 | 18 | 292 | 3.2 | 4.8 | 0.00 | 0.00 | 0.00 | 50 | 974.6 |
| 20260506124610 | 17 | 270 | 4.8 | 1.6 | 0.00 | 0.00 | 0.00 | 50 | 974.6 |
| 20260506123611 | 17 | 337 | 4.8 | 6.4 | 0.00 | 0.00 | 0.00 | 50 | 974.3 |
| 20260506122610 | 17 | 135 | 4.8 | 3.2 | 0.00 | 0.00 | 0.00 | 50 | 974.3 |
| 20260506121610 | 17 | 247 | 4.8 | 0.0 | 0.00 | 0.00 | 0.00 | 51 | 974.5 |
| 20260506120610 | 16 | 180 | 4.8 | 12.9 | 0.00 | 0.00 | 0.00 | 51 | 974.5 |
| 20260506115610 | 16 | 135 | 4.8 | 6.4 | 0.00 | 0.00 | 0.00 | 53 | 974.6 |
| 20260506114610 | 17 | 157 | 3.2 | 9.7 | 0.00 | 0.00 | 0.00 | 53 | 974.6 |
| 20260506113610 | 17 | 67 | 4.8 | 1.6 | 0.00 | 0.00 | 0.00 | 53 | 974.6 |
| 20260506112610 | 16 | 157 | 4.8 | 17.7 | 0.00 | 0.00 | 0.00 | 53 | 974.6 |
| 20260506111609 | 18 | 247 | 4.8 | 4.8 | 0.00 | 0.00 | 0.00 | 55 | 974.6 |
| 20260506110609 | 17 | 225 | 1.6 | 9.7 | 0.00 | 0.00 | 0.00 | 54 | 974.6 |
| 20260506105610 | 18 | 202 | 4.8 | 8.0 | 0.00 | 0.00 | 0.00 | 56 | 974.8 |
| 20260506104609 | 17 | 202 | 3.2 | 6.4 | 0.00 | 0.00 | 0.00 | 56 | 974.8 |
| 20260506103609 | 17 | 247 | 4.8 | 8.0 | 0.00 | 0.00 | 0.00 | 56 | 974.6 |
| 20260506102609 | 17 | 337 | 4.8 | 6.4 | 0.00 | 0.00 | 0.00 | 56 | 974.6 |
| 20260506101609 | 16 | 247 | 4.8 | 9.7 | 0.00 | 0.00 | 0.00 | 56 | 974.5 |
| 20260506100609 | 16 | 225 | 3.2 | 0.0 | 0.00 | 0.00 | 0.00 | 56 | 974.5 |
| 20260506095609 | 16 | 135 | 3.2 | 4.8 | 0.00 | 0.00 | 0.00 | 56 | 974.6 |
| 20260506094609 | 16 | 225 | 3.2 | 1.6 | 0.00 | 0.00 | 0.00 | 57 | 974.6 |
| 20260506093614 | 17 | 315 | 3.2 | 4.8 | 0.00 | 0.00 | 0.00 | 58 | 974.5 |
| 20260506092614 | 17 | 247 | 4.8 | 6.4 | 0.00 | 0.00 | 0.00 | 57 | 974.5 |
| 20260506091614 | 16 | 225 | 3.2 | 3.2 | 0.00 | 0.00 | 0.00 | 57 | 974.4 |
| 20260506090614 | 15 | 180 | 3.2 | 6.4 | 0.00 | 0.00 | 0.00 | 58 | 974.4 |